DW9920 Weather Reports


time (UTC)temp
C
wind
direction
speed
KPH
gust
KPH
rain 1hr
cm
rain 24hr
cm
rain mn
cm
humidity
%
barometer
mb
20260906103044 18 160 0.0 1.6 0.00 1.24 0.03 1 1006.9
20260906101543 18 160 0.0 1.6 0.00 1.24 0.03 1 1007.2
20260906100043 18 11 0.0 1.6 0.00 1.24 0.03 1 1007.0
20260906094559 18 125 0.0 0.0 0.00 1.24 0.03 1 1006.8
20260906093056 18 126 0.0 1.6 0.00 1.24 0.03 1 1006.7
20260906091535 18 126 0.0 0.0 0.00 1.24 0.03 1 1006.7
20260906090032 18 126 0.0 0.0 0.00 1.24 0.03 1 1006.7
20260906084524 18 126 0.0 1.6 0.00 1.24 0.03 1 1006.8
20260906083033 18 207 0.0 0.0 0.00 1.24 0.03 1 1006.8
20260906081516 18 214 0.0 0.0 0.00 1.24 0.03 1 1006.9
20260906080011 19 214 0.0 0.0 0.00 1.24 0.03 1 1006.7
20260906074506 19 214 0.0 0.0 0.03 1.24 0.03 1 1006.8
20260906073001 19 213 0.0 1.6 0.03 1.24 0.03 1 1007.0
20260906071557 19 118 0.0 0.0 0.03 1.24 0.03 1 1007.0
20260906070052 19 118 0.0 0.0 0.03 1.24 0.03 1 1006.8
20260906064548 19 121 0.0 1.6 0.00 1.22 0.00 1 1007.0
20260906063045 19 352 3.2 4.8 0.00 1.22 0.00 1 1007.1
20260906061540 19 136 0.0 1.6 0.00 1.22 0.00 1 1007.1
20260906060035 19 137 0.0 0.0 0.00 1.22 0.00 1 1007.3
20260906054533 19 136 0.0 3.2 0.00 1.22 0.00 1 1007.4
20260906053025 19 164 0.0 0.0 0.00 1.22 0.00 1 1007.6
20260906051523 19 163 0.0 0.0 0.00 1.22 0.00 1 1007.7
20260906050016 19 163 0.0 0.0 0.00 1.22 0.00 1 1007.6
20260906044512 19 163 0.0 0.0 0.00 1.22 0.00 1 1007.6
20260906043007 19 172 0.0 0.0 0.00 1.22 0.00 1 1007.5
20260906041503 19 172 0.0 0.0 0.00 1.22 0.00 1 1007.6
20260906040104 19 172 0.0 0.0 0.00 1.22 0.00 1 1007.7
20260906034603 19 172 0.0 0.0 0.00 1.22 1.22 1 1007.7
20260906033057 20 173 0.0 0.0 0.00 1.22 1.22 1 1007.6
20260906031555 20 173 0.0 1.6 0.00 1.22 1.22 1 1007.5
20260906030052 20 173 0.0 0.0 0.00 1.22 1.22 1 1007.6
20260906024557 20 173 0.0 0.0 0.00 1.22 1.22 1 1007.7
20260906023046 20 173 0.0 0.0 0.00 1.22 1.22 1 1007.9
20260906021543 20 173 0.0 0.0 0.00 1.22 1.22 1 1007.7
20260906020026 20 173 0.0 1.6 0.00 1.22 1.22 3 1007.6
20260905141545 23 311 0.0 3.2 0.00 0.48 0.03 1 1009.2
20260905140041 22 158 0.0 3.2 0.00 0.48 0.03 1 1008.4
20260905134539 22 143 0.0 0.0 0.00 0.48 0.03 1 1008.9
20260905133031 21 149 0.0 0.0 0.00 0.48 0.03 1 1009.3
20260905131527 21 208 0.0 0.0 0.00 0.48 0.03 1 1009.2
20260905130022 20 149 0.0 0.0 0.00 0.48 0.03 2 1009.3
20260905124522 19 132 0.0 0.0 0.00 0.48 0.03 3 1009.4
20260905123018 18 132 0.0 0.0 0.00 0.48 0.03 3 1009.3
20260905121508 18 132 0.0 0.0 0.03 0.48 0.03 4 1009.2
20260905120004 18 132 0.0 0.0 0.03 0.48 0.03 4 1009.1
20260905114600 18 132 0.0 0.0 0.03 0.51 0.03 4 1009.1
20260905113053 18 132 0.0 0.0 0.03 0.51 0.03 4 1008.9
20260905111602 18 133 0.0 0.0 0.00 0.48 0.00 4 1008.5
20260905110049 17 132 0.0 0.0 0.00 0.48 0.00 4 1008.4
20260905104547 18 132 0.0 0.0 0.00 0.48 0.00 4 1008.3